Time,TemperatureF,DewpointF,PressureIn,WindDirection,WindDirectionDegrees,WindSpeedMPH,WindSpeedGustMPH,Humidity,HourlyPrecipIn,Conditions,Clouds,dailyrainin,SoftwareType,DateUTC
2013-02-20 00:00:00,50.0,50.0,30.06,West,260,3.0,6.0,99,-99.99,,,-99.99,,2013-02-20 05:00:00,
2013-02-20 00:22:00,50.0,50.0,30.06,West,260,3.0,6.0,99,-99.99,,,-99.99,,2013-02-20 05:22:00,
2013-02-20 00:31:00,50.0,50.0,30.06,West,260,3.0,6.0,99,-99.99,,,-99.99,,2013-02-20 05:31:00,
2013-02-20 00:42:00,50.0,50.0,30.06,West,260,3.0,6.0,99,-99.99,,,-99.99,,2013-02-20 05:42:00,
2013-02-20 00:52:00,50.0,50.0,30.06,West,260,3.0,6.0,99,-99.99,,,-99.99,,2013-02-20 05:52:00,
2013-02-20 01:00:00,49.0,49.0,30.08,West,260,5.0,6.0,99,-99.99,,,-99.99,,2013-02-20 06:00:00,
2013-02-20 01:21:00,49.0,49.0,30.08,West,260,5.0,6.0,99,-99.99,,,-99.99,,2013-02-20 06:21:00,
2013-02-20 01:31:00,49.0,49.0,30.08,West,260,5.0,6.0,99,-99.99,,,-99.99,,2013-02-20 06:31:00,
2013-02-20 01:41:00,49.0,49.0,30.08,West,260,5.0,6.0,99,-99.99,,,-99.99,,2013-02-20 06:41:00,
2013-02-20 01:51:00,49.0,49.0,30.08,West,260,5.0,6.0,99,-99.99,,,-99.99,,2013-02-20 06:51:00,
2013-02-20 02:00:00,47.0,47.0,30.09,West,270,3.0,5.0,98,-99.99,,,-99.99,,2013-02-20 07:00:00,
2013-02-20 02:21:00,47.0,47.0,30.09,West,270,3.0,5.0,98,-99.99,,,-99.99,,2013-02-20 07:21:00,
2013-02-20 02:31:00,47.0,47.0,30.09,West,270,3.0,5.0,98,-99.99,,,-99.99,,2013-02-20 07:31:00,
2013-02-20 02:41:00,47.0,47.0,30.09,West,270,3.0,5.0,98,-99.99,,,-99.99,,2013-02-20 07:41:00,
2013-02-20 02:51:00,47.0,47.0,30.09,West,270,3.0,5.0,98,-99.99,,,-99.99,,2013-02-20 07:51:00,
2013-02-20 03:00:00,45.0,43.0,30.09,West,280,3.0,6.0,92,-99.99,,,-99.99,,2013-02-20 08:00:00,
2013-02-20 03:21:00,45.0,43.0,30.09,West,280,3.0,6.0,92,-99.99,,,-99.99,,2013-02-20 08:21:00,
2013-02-20 03:31:00,45.0,43.0,30.09,West,280,3.0,6.0,92,-99.99,,,-99.99,,2013-02-20 08:31:00,
2013-02-20 03:41:00,45.0,43.0,30.09,West,280,3.0,6.0,92,-99.99,,,-99.99,,2013-02-20 08:41:00,
2013-02-20 03:51:00,45.0,43.0,30.09,West,280,3.0,6.0,92,-99.99,,,-99.99,,2013-02-20 08:51:00,
2013-02-20 04:00:00,43.0,40.0,30.10,West,270,5.0,8.0,88,-99.99,,,-99.99,,2013-02-20 09:00:00,
2013-02-20 04:21:00,43.0,40.0,30.10,West,270,5.0,8.0,88,-99.99,,,-99.99,,2013-02-20 09:21:00,
2013-02-20 04:31:00,43.0,40.0,30.10,West,270,5.0,8.0,88,-99.99,,,-99.99,,2013-02-20 09:31:00,
2013-02-20 04:41:00,43.0,40.0,30.10,West,270,5.0,8.0,88,-99.99,,,-99.99,,2013-02-20 09:41:00,
2013-02-20 04:51:00,43.0,40.0,30.10,West,270,5.0,8.0,88,-99.99,,,-99.99,,2013-02-20 09:51:00,
2013-02-20 05:00:00,42.0,37.0,30.11,West,260,3.0,5.0,83,-99.99,,,-99.99,,2013-02-20 10:00:00,
2013-02-20 05:21:00,42.0,37.0,30.11,West,260,3.0,5.0,83,-99.99,,,-99.99,,2013-02-20 10:21:00,
2013-02-20 05:31:00,42.0,37.0,30.11,West,260,3.0,5.0,83,-99.99,,,-99.99,,2013-02-20 10:31:00,
2013-02-20 05:41:00,42.0,37.0,30.11,West,260,3.0,5.0,83,-99.99,,,-99.99,,2013-02-20 10:41:00,
2013-02-20 05:51:00,42.0,37.0,30.11,West,260,3.0,5.0,83,-99.99,,,-99.99,,2013-02-20 10:51:00,
2013-02-20 06:00:00,40.0,35.0,30.12,West,280,3.0,5.0,82,-99.99,,,-99.99,,2013-02-20 11:00:00,
2013-02-20 06:21:00,40.0,35.0,30.12,West,280,3.0,5.0,82,-99.99,,,-99.99,,2013-02-20 11:21:00,
2013-02-20 06:31:00,40.0,35.0,30.12,West,280,3.0,5.0,82,-99.99,,,-99.99,,2013-02-20 11:31:00,
2013-02-20 06:41:00,40.0,35.0,30.12,West,280,3.0,5.0,82,-99.99,,,-99.99,,2013-02-20 11:41:00,
2013-02-20 06:52:00,40.0,35.0,30.12,West,280,3.0,5.0,82,-99.99,,,-99.99,,2013-02-20 11:52:00,
2013-02-20 07:00:00,39.0,34.0,30.14,West,270,5.0,6.0,80,-99.99,,,-99.99,,2013-02-20 12:00:00,
2013-02-20 07:21:00,39.0,34.0,30.14,West,270,5.0,6.0,80,-99.99,,,-99.99,,2013-02-20 12:21:00,
2013-02-20 07:31:00,39.0,34.0,30.14,West,270,5.0,6.0,80,-99.99,,,-99.99,,2013-02-20 12:31:00,
2013-02-20 07:41:00,39.0,34.0,30.14,West,270,5.0,6.0,80,-99.99,,,-99.99,,2013-02-20 12:41:00,
2013-02-20 07:52:00,39.0,34.0,30.14,West,270,5.0,6.0,80,-99.99,,,-99.99,,2013-02-20 12:52:00,
2013-02-20 08:00:00,40.0,35.0,30.16,WNW,290,6.0,8.0,79,-99.99,,,-99.99,,2013-02-20 13:00:00,
2013-02-20 08:22:00,40.0,35.0,30.16,WNW,290,6.0,8.0,79,-99.99,,,-99.99,,2013-02-20 13:22:00,
2013-02-20 08:31:00,40.0,35.0,30.16,WNW,290,6.0,8.0,79,-99.99,,,-99.99,,2013-02-20 13:31:00,
2013-02-20 08:42:00,40.0,35.0,30.16,WNW,290,6.0,8.0,79,-99.99,,,-99.99,,2013-02-20 13:42:00,
2013-02-20 08:51:00,40.0,35.0,30.16,WNW,290,6.0,8.0,79,-99.99,,,-99.99,,2013-02-20 13:51:00,
2013-02-20 09:00:00,43.0,32.0,30.18,NNW,330,7.0,9.0,65,-99.99,,,-99.99,,2013-02-20 14:00:00,
2013-02-20 09:21:00,43.0,32.0,30.18,NNW,330,7.0,9.0,65,-99.99,,,-99.99,,2013-02-20 14:21:00,
2013-02-20 09:32:00,43.0,32.0,30.18,NNW,330,7.0,9.0,65,-99.99,,,-99.99,,2013-02-20 14:32:00,
2013-02-20 09:42:00,43.0,32.0,30.18,NNW,330,7.0,9.0,65,-99.99,,,-99.99,,2013-02-20 14:42:00,
2013-02-20 09:52:00,43.0,32.0,30.18,NNW,330,7.0,9.0,65,-99.99,,,-99.99,,2013-02-20 14:52:00,
2013-02-20 10:00:00,47.0,31.0,30.17,North,350,6.0,9.0,54,-99.99,,,-99.99,,2013-02-20 15:00:00,
2013-02-20 10:22:00,47.0,31.0,30.17,North,350,6.0,9.0,54,-99.99,,,-99.99,,2013-02-20 15:22:00,
2013-02-20 10:31:00,47.0,31.0,30.17,North,350,6.0,9.0,54,-99.99,,,-99.99,,2013-02-20 15:31:00,
2013-02-20 10:41:00,47.0,31.0,30.17,North,350,6.0,9.0,54,-99.99,,,-99.99,,2013-02-20 15:41:00,
2013-02-20 10:51:00,47.0,31.0,30.17,North,350,6.0,9.0,54,-99.99,,,-99.99,,2013-02-20 15:51:00,
2013-02-20 11:00:00,48.0,27.0,30.17,NNE,30,5.0,7.0,43,-99.99,,,-99.99,,2013-02-20 16:00:00,
2013-02-20 11:21:00,48.0,27.0,30.17,NNE,30,5.0,7.0,43,-99.99,,,-99.99,,2013-02-20 16:21:00,
2013-02-20 11:32:00,48.0,27.0,30.17,NNE,30,5.0,7.0,43,-99.99,,,-99.99,,2013-02-20 16:32:00,
2013-02-20 11:41:00,48.0,27.0,30.17,NNE,30,5.0,7.0,43,-99.99,,,-99.99,,2013-02-20 16:41:00,
2013-02-20 11:51:00,48.0,27.0,30.17,NNE,30,5.0,7.0,43,-99.99,,,-99.99,,2013-02-20 16:51:00,
2013-02-20 12:00:00,50.0,29.0,30.15,East,80,7.0,7.0,44,-99.99,,,-99.99,,2013-02-20 17:00:00,
2013-02-20 12:21:00,50.0,29.0,30.15,East,80,7.0,7.0,44,-99.99,,,-99.99,,2013-02-20 17:21:00,
2013-02-20 12:32:00,50.0,29.0,30.15,East,80,7.0,7.0,44,-99.99,,,-99.99,,2013-02-20 17:32:00,
2013-02-20 12:41:00,50.0,29.0,30.15,East,80,7.0,7.0,44,-99.99,,,-99.99,,2013-02-20 17:41:00,
2013-02-20 12:51:00,50.0,29.0,30.15,East,80,7.0,7.0,44,-99.99,,,-99.99,,2013-02-20 17:51:00,
2013-02-20 13:00:00,49.0,29.0,30.13,ESE,110,8.0,9.0,45,-99.99,,,-99.99,,2013-02-20 18:00:00,
2013-02-20 13:21:00,49.0,29.0,30.13,ESE,110,8.0,9.0,45,-99.99,,,-99.99,,2013-02-20 18:21:00,
2013-02-20 13:31:00,49.0,29.0,30.13,ESE,110,8.0,9.0,45,-99.99,,,-99.99,,2013-02-20 18:31:00,
2013-02-20 13:41:00,49.0,29.0,30.13,ESE,110,8.0,9.0,45,-99.99,,,-99.99,,2013-02-20 18:41:00,
2013-02-20 13:51:00,49.0,29.0,30.13,ESE,110,8.0,9.0,45,-99.99,,,-99.99,,2013-02-20 18:51:00,
2013-02-20 18:00:00,50.0,31.0,30.12,SW,220,10.0,11.0,47,-99.99,,,-99.99,,2013-02-20 23:00:00,
2013-02-20 18:21:00,50.0,31.0,30.12,SW,220,10.0,11.0,47,-99.99,,,-99.99,,2013-02-20 23:21:00,
2013-02-20 18:31:00,50.0,31.0,30.12,SW,220,10.0,11.0,47,-99.99,,,-99.99,,2013-02-20 23:31:00,
2013-02-20 18:42:00,50.0,31.0,30.12,SW,220,10.0,11.0,47,-99.99,,,-99.99,,2013-02-20 23:42:00,
2013-02-20 18:51:00,50.0,31.0,30.12,SW,220,10.0,11.0,47,-99.99,,,-99.99,,2013-02-20 23:51:00,
2013-02-20 19:00:00,49.0,33.0,30.13,WSW,240,5.0,7.0,54,-99.99,,,-99.99,,2013-02-21 00:00:00,
2013-02-20 19:21:00,49.0,33.0,30.13,WSW,240,5.0,7.0,54,-99.99,,,-99.99,,2013-02-21 00:21:00,
2013-02-20 19:31:00,49.0,33.0,30.13,WSW,240,5.0,7.0,54,-99.99,,,-99.99,,2013-02-21 00:31:00,
2013-02-20 19:41:00,49.0,33.0,30.13,WSW,240,5.0,7.0,54,-99.99,,,-99.99,,2013-02-21 00:41:00,
2013-02-20 19:52:00,49.0,33.0,30.13,WSW,240,5.0,7.0,54,-99.99,,,-99.99,,2013-02-21 00:52:00,
2013-02-20 20:00:00,49.0,36.0,30.14,WSW,250,2.0,3.0,61,-99.99,,,-99.99,,2013-02-21 01:00:00,
2013-02-20 20:21:00,49.0,36.0,30.14,WSW,250,2.0,3.0,61,-99.99,,,-99.99,,2013-02-21 01:21:00,
2013-02-20 20:31:00,49.0,36.0,30.14,WSW,250,2.0,3.0,61,-99.99,,,-99.99,,2013-02-21 01:31:00,
2013-02-20 20:41:00,49.0,36.0,30.14,WSW,250,2.0,3.0,61,-99.99,,,-99.99,,2013-02-21 01:41:00,
2013-02-20 20:51:00,49.0,36.0,30.14,WSW,250,2.0,3.0,61,-99.99,,,-99.99,,2013-02-21 01:51:00,
2013-02-20 21:00:00,50.0,37.0,30.11,SW,230,7.0,10.0,60,-99.99,,,-99.99,,2013-02-21 02:00:00,
2013-02-20 21:21:00,50.0,37.0,30.11,SW,230,7.0,10.0,60,-99.99,,,-99.99,,2013-02-21 02:21:00,
2013-02-20 21:32:00,50.0,37.0,30.11,SW,230,7.0,10.0,60,-99.99,,,-99.99,,2013-02-21 02:32:00,
2013-02-20 21:41:00,50.0,37.0,30.11,SW,230,7.0,10.0,60,-99.99,,,-99.99,,2013-02-21 02:41:00,
2013-02-20 21:51:00,50.0,37.0,30.11,SW,230,7.0,10.0,60,-99.99,,,-99.99,,2013-02-21 02:51:00,
2013-02-20 22:00:00,51.0,39.0,30.13,SW,220,6.0,8.0,62,-99.99,,,-99.99,,2013-02-21 03:00:00,
2013-02-20 22:21:00,51.0,39.0,30.13,SW,220,6.0,8.0,62,-99.99,,,-99.99,,2013-02-21 03:21:00,
2013-02-20 22:31:00,51.0,39.0,30.13,SW,220,6.0,8.0,62,-99.99,,,-99.99,,2013-02-21 03:31:00,
2013-02-20 22:41:00,51.0,39.0,30.13,SW,220,6.0,8.0,62,-99.99,,,-99.99,,2013-02-21 03:41:00,
2013-02-20 22:51:00,51.0,39.0,30.13,SW,220,6.0,8.0,62,-99.99,,,-99.99,,2013-02-21 03:51:00,
2013-02-20 23:00:00,50.0,39.0,30.12,WSW,240,6.0,7.0,66,-99.99,,,-99.99,,2013-02-21 04:00:00,
2013-02-20 23:21:00,50.0,39.0,30.12,WSW,240,6.0,7.0,66,-99.99,,,-99.99,,2013-02-21 04:21:00,
2013-02-20 23:31:00,50.0,39.0,30.12,WSW,240,6.0,7.0,66,-99.99,,,-99.99,,2013-02-21 04:31:00,
2013-02-20 23:41:00,50.0,39.0,30.12,WSW,240,6.0,7.0,66,-99.99,,,-99.99,,2013-02-21 04:41:00,
2013-02-20 23:51:00,50.0,39.0,30.12,WSW,240,6.0,7.0,66,-99.99,,,-99.99,,2013-02-21 04:51:00,